sat.trackr.live / text

‹ back to catalog

GOMX-1

NORAD 39430 · 2013-066Q

PAYLOAD ACTIVE UNKNOWN

§ Identity

Operator
Country
DEN
Launch date
2013-11-21
Launch site
DLS
Launch vehicle
Mass (kg)
RCS (m²)
0.05

Purposes: comms, tech_demo

External: N2YO · Heavens-Above · Gunter

§ Orbital elements

Epoch: 2026-05-25T04:04:01.100352Z

Period
98.00 min
Inclination
97.6502°
Eccentricity
0.0129409
Mean motion
14.69352090 rev/d
Perigee alt
572.0 km
Apogee alt
754.3 km
Semi-major
7,041.3 km
B*
2.4774e-4
RAAN
347.0844°
Arg perigee
150.8386°
Mean anomaly
210.0128°
Rev number
66,653

§ Raw data

GOMX-11 39430U 13066Q   26145.16945718  .00001614  00000+0  24774-3 0  99922 39430  97.6502 347.0844 0129409 150.8386 210.0128 14.69352090666535

JSON: /api/v1/satellites/39430 · /tle

For live sub-satellite position, see the globe view (requires WebGL).

§ Visibility from observer

Set your observer location to see the next 7 days of passes ≥ 10°. The values pass through the URL so the page stays shareable.

No JS? Fill the form by hand. The geolocation button needs JavaScript.

§ Radio — SatNOGS DB

ModeDescriptionDownlinkUplink
GMSK 4k8 GMSK 437.250 MHz
FM Mode X (8MHz) 8.198 GHz
CW PE0SAT - CW Beacon (inactive) 437.253 MHz

3 transmitters · refreshed weekly from db.satnogs.org